Chillicothe, MO

9:06 PM CST on February 21, 2017 (GMT -0600)
Chillicothe

Weather History for KCDJ - November, 2012

Change the Weather History Date:

Tuesday, November 27, 2012

  Actual Average (KIRK) Record (KIRK)
Temperature  
Mean Temperature 24 °F -  
Max Temperature 37 °F 43 °F 71 °F (1990)
Min Temperature 10 °F 27 °F 7 °F (1955)
Degree Days  
Heating Degree Days 42    
Moisture  
Dew Point 13 °F    
Average Humidity 65    
Maximum Humidity 88    
Minimum Humidity 39    
Precipitation  
Precipitation 0.00 in - - ()
Sea Level Pressure  
Sea Level Pressure 30.44 in    
Wind  
Wind Speed 3 mph (SSW)    
Max Wind Speed 12 mph    
Max Gust Speed -    
Averages and records for this station are not official NWS values.
T = Trace of Precipitation, MM = Missing Value Source: NWS Daily Summary

Daily Weather History Graph

Daily Weather History Graph

Search for Another Location

Airport or City:

Trip Planner

Search our weather history database for the weather conditions in past years. The results will help you decide how hot, cold, wet, or windy it might be!

Date:

Astronomy

Nov. 27, 2012 Rise Set
Actual Time 7:12 AM CST 4:51 PM CST
Civil Twilight 6:43 AM CST 5:20 PM CST
Nautical Twilight 6:09 AM CST 5:54 PM CST
Astronomical Twilight 5:37 AM CST 6:26 PM CST
Moon 4:23 PM CST (11/27) 6:18 AM CST (11/27)
Length of Visible Light 10h 37m
Length of Day
9h 38m
Waxing Gibbous, 99% of the Moon is Illuminated
Nov 27
Waxing Gibbous
Nov 28
Full
Dec 6
Last Quarter
Dec 13
New
Dec 19
First Quarter

Hourly Weather History & Observations

Time (CST) Temp. Windchill Dew Point Humidity Pressure Visibility Wind Dir Wind Speed Gust Speed Precip Events Conditions
12:52 AM 17.1 °F - 10.0 °F 74% 30.52 in - Calm Calm - N/A   Unknown
1:52 AM 14.0 °F - 10.0 °F 84% 30.52 in - Calm Calm - N/A   Unknown
2:52 AM 14.0 °F 8.2 °F 9.0 °F 80% 30.51 in - NW 3.5 mph - N/A   Unknown
3:52 AM 14.0 °F - 8.1 °F 77% 30.51 in - Calm Calm - N/A   Unknown
4:52 AM 12.0 °F - 8.1 °F 84% - - Calm Calm - N/A   Unknown
5:52 AM 12.9 °F - 8.1 °F 81% 30.52 in - Calm Calm - N/A   Unknown
6:52 AM 10.9 °F - 6.1 °F 81% 30.53 in - Calm Calm - N/A   Unknown
7:52 AM 12.9 °F - 10.0 °F 88% 30.53 in - Calm Calm - N/A   Unknown
8:52 AM 19.0 °F - 14.0 °F 81% 30.54 in - Calm Calm - N/A   Unknown
9:52 AM 24.1 °F 18.2 °F 12.9 °F 62% 30.52 in - South 4.6 mph - N/A   Unknown
10:52 AM 27.0 °F 19.5 °F 12.0 °F 53% 30.51 in - SSW 6.9 mph - N/A   Unknown
11:52 AM 32.0 °F 24.8 °F 14.0 °F 48% 30.46 in - South 8.1 mph - N/A   Unknown
12:52 PM 34.0 °F 26.6 °F 12.9 °F 42% 30.43 in - SSW 9.2 mph - N/A   Unknown
1:52 PM 36.0 °F 29.0 °F 14.0 °F 41% 30.39 in - SSW 9.2 mph - N/A   Unknown
2:52 PM 37.0 °F 30.4 °F 14.0 °F 39% 30.36 in - South 9.2 mph - N/A   Unknown
3:52 PM 37.0 °F 29.3 °F 14.0 °F 39% 30.35 in - South 11.5 mph - N/A   Unknown
4:52 PM 35.1 °F 29.3 °F 15.1 °F 44% 30.35 in - South 6.9 mph - N/A   Unknown
5:52 PM 32.0 °F 28.7 °F 15.1 °F 50% 30.34 in - SSW 3.5 mph - N/A   Unknown
6:52 PM 28.0 °F - 17.1 °F 63% 30.36 in - Calm Calm - N/A   Unknown
7:52 PM 27.0 °F 21.6 °F 18.0 °F 69% 30.37 in - SSW 4.6 mph - N/A   Unknown
8:52 PM 25.0 °F 20.7 °F 16.0 °F 69% 30.37 in - South 3.5 mph - N/A   Unknown
9:52 PM 24.1 °F 19.7 °F 16.0 °F 71% 30.37 in - SSW 3.5 mph - N/A   Unknown
10:52 PM 24.1 °F 19.7 °F 16.0 °F 71% 30.37 in - South 3.5 mph - N/A   Unknown
11:52 PM 25.0 °F 20.7 °F 17.1 °F 72% 30.38 in - South 3.5 mph - N/A   Unknown